Weather in Bukharay

Russia / Republic of Tatarstan     55°08′42″N   52°18′36″E
temp.,
°C
wind,
m/s
gust,
m/s
humid.,
%
clouds,
%
prec.,
mm/h
press.,
hPa
HPBL,
m
16 may, sun
sun1600:00+19s465383 0.0 101988
03:00+17s335534 0.0 101940
06:00+20s395716 0.0 1020242
09:00+26ssw69381 0.0 1019713
12:00+29sw710295 0.0 10191630
15:00+29sw69325 0.0 10183344
18:00+25ssw36475 0.0 1017105
21:00+20ssw3451100 0.0 101851
17 may, mon
mon1700:00+18s455312 0.0 101862
03:00+17ssw34575 0.0 101849
06:00+20ssw385847 0.0 1019239
09:00+25sw684562 0.0 1019551
12:00+29wsw693414 0.0 10191288
15:00+29wsw683433 0.0 10181787
18:00+25w345289 0.0 101754
21:00+21wsw11645 0.0 101911
18 may, tue
tue1800:00+19sw11675 0.0 101911
03:00+18nne227038 0.0 101913
06:00+21e1265100 0.0 1019133
09:00+25e225298 0.0 1019571
12:00+28ene3244100 0.0 10191382
15:00+28ne3240100 0.0 10181768
18:00+24ne485699 0.0 1019241
21:00+19e3860100 0.0 1020138
19 may, wed
wed1900:00+17e41066100 0.0 1020208
03:00+16e5116977 0.0 1020239
06:00+16e51170100 0.0 1021334
09:00+21e6852100 0.0 1020761
12:00+24ese674183 0.0 10201322
15:00+25ese67377 0.0 10191646
18:00+22ese510545 0.0 1018332
21:00+18se412665 0.0 1019229
20 may, thu
thu2000:00+16se412630 0.0 1019268
03:00+14se410660 0.0 1020205
06:00+17sse614580 0.0 1019561
09:00+21sse811485 0.0 1019927
12:00+24s810445 0.0 10191698
15:00+20ssw91260100 0.1 1019936
18:00+18s41364100 0.1 1019748
21:00+15s36804 0.1 101998